Location: Brno
(49.2000°N, 16.6330°E)
Time: 01:07:18
(UTC+02:00)

Transit 4A - Pass Details

Date: 02 August 2021
Orbit: 870 x 974 km, 66.8° (Epoch: 26 September)

Event Time Altitude Azimuth Distance (km) Brightness Sun altitude
Rises 04:16:43 0° 292° (WNW) 3,468 10.6 -10.1°
Reaches altitude 10° 04:20:28 10° 316° (NW) 2,526 10.2 -9.7°
Maximum altitude 04:23:38 15° 349° (N) 2,205 10.3 -9.3°
Drops below altitude 10° 04:26:49 10° 23° (NNE) 2,532 11.3 -8.9°
Sets 04:30:35 0° 47° (NE) 3,481 13.4 -8.4°
